period_start,C,m1,H,J0,J1,J2,J3,J4,J5,JA,JB,JC,JD,JJ,JK,JN,#
2013-11-02 00:00:40,0.03,0.58,0.00,20.96,22.67,25.54,5.90,31.50,993.18,2064.92,3265.82,3222.00,3463.76,349.98,318.36,9.42,0000 0000 0000 0000 000000
2013-11-02 00:01:40,0.08,0.58,0.00,20.95,22.67,25.50,5.93,31.67,993.18,2064.93,3265.48,3221.99,3463.37,350.44,319.11,9.43,0000 0000 0000 0000 000000
2013-11-02 00:02:41,0.07,0.58,0.00,20.93,22.67,25.50,5.71,31.71,993.18,2064.88,3265.18,3221.89,3463.14,350.50,319.39,9.43,0000 0000 0000 0000 000000
2013-11-02 00:03:41,0.04,0.58,0.00,20.96,22.67,25.50,5.86,31.75,993.18,2064.88,3265.07,3221.79,3463.05,350.89,319.51,9.44,0000 0000 0000 0000 000000
2013-11-02 00:04:41,0.06,0.58,0.00,20.96,22.67,25.53,5.83,31.67,993.18,2064.91,3265.02,3221.62,3463.03,349.71,318.43,9.44,0000 0000 0000 0000 000000
2013-11-02 00:05:41,0.09,0.58,0.00,20.95,22.67,25.52,5.96,31.58,993.18,2064.93,3265.00,3221.30,3463.00,349.76,318.49,9.45,0000 0000 0000 0000 000000
2013-11-02 00:06:42,0.07,0.58,0.00,20.94,22.67,25.55,5.83,31.63,993.18,2064.93,3264.95,3221.11,3462.99,348.97,318.24,9.46,0000 0000 0000 0000 000000
2013-11-02 00:07:42,0.05,0.58,0.00,20.94,22.67,25.56,5.91,31.63,993.18,2064.92,3264.76,3221.05,3462.93,349.54,317.97,9.46,0000 0000 0000 0000 000000
2013-11-02 00:08:42,0.03,0.58,0.00,20.94,22.67,25.54,5.97,31.46,993.18,2064.85,3264.43,3221.04,3462.68,350.72,319.23,9.47,0000 0000 0000 0000 000000
2013-11-02 00:09:42,0.02,0.58,0.00,20.94,22.67,25.54,5.94,31.92,993.18,2064.83,3264.18,3221.01,3462.38,350.45,319.19,9.47,0000 0000 0000 0000 000000
2013-11-02 00:10:43,0.07,0.58,0.00,20.96,22.67,25.54,5.85,31.54,993.18,2064.88,3264.08,3221.00,3462.20,349.77,318.48,9.48,0000 0000 0000 0000 000000
2013-11-02 00:11:43,0.08,0.58,0.00,20.96,22.67,25.51,5.74,31.75,993.18,2064.91,3264.03,3221.00,3462.08,348.92,317.72,9.49,0000 0000 0000 0000 000000
2013-11-02 00:12:43,0.04,0.58,0.00,20.95,22.67,25.53,5.85,31.46,993.18,2064.84,3264.01,3221.00,3462.03,349.85,318.56,9.49,0000 0000 0000 0000 000000
2013-11-02 00:13:44,-0.07,0.58,0.00,20.96,22.67,25.52,5.88,31.58,993.20,2064.70,3264.00,3220.96,3462.01,350.62,319.27,9.50,0000 0000 0000 0000 000000
2013-11-02 00:14:44,-0.07,0.58,0.00,20.95,22.67,25.51,5.97,31.42,993.23,2064.70,3263.98,3220.92,3461.98,350.65,319.32,9.50,0000 0000 0000 0000 000000
2013-11-02 00:15:44,0.01,0.58,0.00,20.93,22.67,25.52,5.82,31.50,993.25,2064.76,3263.88,3220.88,3461.97,350.71,319.39,9.51,0000 0000 0000 0000 000000
2013-11-02 00:16:44,0.08,0.58,0.00,20.94,22.67,25.55,5.77,31.54,993.29,2064.82,3263.61,3220.76,3461.97,349.32,318.13,9.52,0000 0000 0000 0000 000000
2013-11-02 00:17:44,0.10,0.58,0.00,20.95,22.68,25.50,5.81,31.29,993.29,2064.81,3263.30,3220.43,3461.95,349.62,318.40,9.52,0000 0000 0000 0000 000000
2013-11-02 00:18:45,0.12,0.58,0.00,20.96,22.67,25.52,5.93,31.54,993.32,2064.80,3263.12,3220.29,3461.85,349.71,318.73,9.53,0000 0000 0000 0000 000000
2013-11-02 00:19:45,0.04,0.58,0.00,20.96,22.67,25.52,5.82,31.54,993.40,2064.85,3263.05,3220.27,3461.70,350.14,319.22,9.53,0000 0000 0000 0000 000000
2013-11-02 00:20:45,0.11,0.58,0.00,20.97,22.67,25.52,6.02,31.71,993.41,2064.83,3263.01,3220.14,3461.40,350.45,319.17,9.54,0000 0000 0000 0000 000000
2013-11-02 00:21:45,0.02,0.58,0.00,20.95,22.67,25.51,5.93,31.58,993.49,2064.78,3263.00,3220.09,3461.18,350.78,319.52,9.54,0000 0000 0000 0000 000000
2013-11-02 00:22:46,0.01,0.58,0.00,20.93,22.68,25.50,5.77,31.63,993.47,2064.80,3263.00,3220.03,3461.08,349.02,317.42,9.55,0000 0000 0000 0000 000000
2013-11-02 00:23:46,0.04,0.58,0.00,20.95,22.68,25.51,5.86,31.58,993.36,2064.89,3263.00,3220.02,3461.03,350.29,319.02,9.56,0000 0000 0000 0000 000000
2013-11-02 00:24:46,0.04,0.58,0.00,20.95,22.67,25.50,5.88,31.67,993.37,2064.84,3263.00,3220.00,3461.01,350.12,319.05,9.56,0000 0000 0000 0000 000000
2013-11-02 00:25:46,-0.01,0.58,0.00,20.95,22.67,25.55,5.77,31.63,993.49,2064.90,3262.95,3220.00,3461.00,349.54,318.70,9.57,0000 0000 0000 0000 000000
2013-11-02 00:26:47,0.05,0.58,0.00,20.93,22.68,25.58,5.92,31.38,993.46,2064.86,3262.73,3220.00,3460.99,350.06,318.52,9.57,0000 0000 0000 0000 000000
2013-11-02 00:27:47,0.01,0.58,0.00,20.93,22.67,25.58,5.75,31.75,993.58,2064.83,3262.30,3219.99,3460.97,349.63,318.17,9.58,0000 0000 0000 0000 000000
2013-11-02 00:28:47,0.03,0.58,0.00,20.92,22.68,25.54,5.89,31.75,993.60,2064.87,3262.11,3219.99,3460.96,350.11,318.95,9.59,0000 0000 0000 0000 000000
2013-11-02 00:29:48,0.05,0.58,0.00,20.94,22.68,25.53,5.82,31.75,993.58,2064.81,3262.04,3219.97,3460.70,350.32,319.13,9.59,0000 0000 0000 0000 000000
2013-11-02 00:30:48,0.01,0.58,0.00,20.96,22.68,25.52,5.76,31.42,993.60,2064.72,3262.01,3219.87,3460.37,350.36,319.16,9.60,0000 0000 0000 0000 000000
2013-11-02 00:31:48,-0.01,0.58,0.00,20.93,22.68,25.52,5.77,31.42,993.65,2064.65,3261.99,3219.72,3460.19,349.67,318.57,9.60,0000 0000 0000 0000 000000
2013-11-02 00:32:49,-0.01,0.58,0.00,20.93,22.68,25.51,5.86,31.42,993.65,2064.54,3261.96,3219.41,3460.07,350.49,318.91,9.61,0000 0000 0000 0000 000000
2013-11-02 00:33:49,0.06,0.58,0.00,20.94,22.68,25.52,5.79,31.54,993.66,2064.65,3261.79,3219.27,3460.02,349.67,318.57,9.62,0000 0000 0000 0000 000000
2013-11-02 00:34:49,0.11,0.58,0.00,20.96,22.68,25.52,5.87,31.25,993.67,2064.67,3261.41,3219.13,3460.00,350.01,318.86,9.62,0000 0000 0000 0000 000000
2013-11-02 00:35:49,0.11,0.58,0.00,20.95,22.68,25.53,5.85,31.71,993.67,2064.75,3261.19,3219.05,3460.00,348.98,317.77,9.63,0000 0000 0000 0000 000000
2013-11-02 00:36:50,0.11,0.59,0.00,20.95,22.68,25.52,5.97,31.42,993.67,2064.76,3261.09,3219.02,3460.00,350.90,320.03,9.63,0000 0000 0000 0000 000000
2013-11-02 00:37:50,0.04,0.59,0.00,20.96,22.68,25.54,5.96,31.58,993.67,2064.84,3261.04,3219.00,3459.99,350.48,319.30,9.64,0000 0000 0000 0000 000000
2013-11-02 00:38:50,0.07,0.59,0.00,20.94,22.69,25.56,5.83,31.50,993.67,2064.83,3261.01,3219.01,3459.98,349.56,318.46,9.64,0000 0000 0000 0000 000000
2013-11-02 00:39:50,-0.00,0.59,0.00,20.94,22.69,25.54,5.88,31.42,993.67,2064.78,3260.99,3219.00,3459.92,350.03,318.90,9.65,0000 0000 0000 0000 000000
2013-11-02 00:40:51,-0.09,0.59,0.00,20.93,22.69,25.54,5.85,31.83,993.67,2064.65,3260.97,3219.00,3459.61,348.82,317.80,9.66,0000 0000 0000 0000 000000
2013-11-02 00:41:51,0.01,0.59,0.00,20.93,22.69,25.52,5.90,31.96,993.67,2064.64,3260.89,3218.99,3459.29,350.61,319.43,9.66,0000 0000 0000 0000 000000
2013-11-02 00:42:51,0.01,0.59,0.00,20.92,22.69,25.53,5.98,31.75,993.67,2064.53,3260.53,3218.98,3459.12,350.46,319.31,9.67,0000 0000 0000 0000 000000
2013-11-02 00:43:51,0.00,0.59,0.00,20.92,22.69,25.52,5.88,31.88,993.67,2064.36,3260.25,3218.94,3459.05,350.92,319.53,9.67,0000 0000 0000 0000 000000
2013-11-02 00:44:52,-0.07,0.58,0.00,20.95,22.69,25.52,5.81,31.58,993.67,2064.39,3260.09,3218.88,3459.02,350.32,319.15,9.68,0000 0000 0000 0000 000000
2013-11-02 00:45:52,0.05,0.59,0.00,20.95,22.69,25.53,5.86,31.58,993.68,2064.35,3260.04,3218.72,3459.00,350.05,318.56,9.69,0000 0000 0000 0000 000000
2013-11-02 00:46:52,0.01,0.59,0.00,20.94,22.69,25.51,5.86,31.42,993.67,2064.30,3260.01,3218.61,3458.99,350.94,319.32,9.69,0000 0000 0000 0000 000000
2013-11-02 00:47:52,0.00,0.59,0.00,20.93,22.69,25.52,5.83,31.50,993.68,2064.33,3260.00,3218.46,3458.98,350.47,319.90,9.70,0000 0000 0000 0000 000000
2013-11-02 00:48:52,0.06,0.59,0.00,20.96,22.69,25.51,5.95,31.58,993.69,2064.43,3259.99,3218.22,3458.97,350.30,319.14,9.70,0000 0000 0000 0000 000000
2013-11-02 00:49:53,0.13,0.59,0.00,20.96,22.69,25.52,5.98,31.54,993.72,2064.45,3259.96,3218.08,3458.92,350.11,319.01,9.71,0000 0000 0000 0000 000000
2013-11-02 00:50:53,0.02,0.59,0.00,20.95,22.69,25.51,5.83,31.21,993.72,2064.35,3259.79,3218.03,3458.66,350.64,319.07,9.71,0000 0000 0000 0000 000000
2013-11-02 00:51:53,0.02,0.59,0.00,20.97,22.69,25.50,5.74,31.67,993.72,2064.36,3259.43,3218.02,3458.33,348.56,317.54,9.72,0000 0000 0000 0000 000000
2013-11-02 00:52:53,0.11,0.59,0.00,20.97,22.69,25.51,5.83,31.58,993.74,2064.28,3259.20,3218.00,3458.15,350.00,318.87,9.73,0000 0000 0000 0000 000000
2013-11-02 00:53:54,-0.05,0.59,0.00,20.98,22.69,25.53,5.84,31.58,993.74,2064.26,3259.07,3218.00,3458.08,350.18,319.01,9.73,0000 0000 0000 0000 000000
2013-11-02 00:54:54,0.00,0.59,0.00,20.96,22.69,25.55,5.79,31.46,993.78,2064.29,3259.03,3217.99,3458.03,349.62,318.54,9.74,0000 0000 0000 0000 000000
2013-11-02 00:55:54,0.05,0.59,0.00,20.96,22.69,25.52,5.88,31.46,993.78,2064.31,3259.00,3217.99,3458.01,350.54,319.38,9.74,0000 0000 0000 0000 000000
2013-11-02 00:56:55,0.00,0.59,0.00,20.94,22.69,25.51,5.79,31.75,993.87,2064.25,3259.00,3217.99,3458.00,349.54,318.86,9.75,0000 0000 0000 0000 000000
2013-11-02 00:57:55,-0.08,0.59,0.00,20.97,22.69,25.51,5.83,31.42,993.96,2064.35,3258.98,3217.98,3458.00,349.19,318.34,9.76,0000 0000 0000 0000 000000
2013-11-02 00:58:55,0.17,0.59,0.00,20.98,22.69,25.50,5.76,31.58,994.01,2064.40,3258.92,3217.97,3458.00,349.06,318.08,9.76,0000 0000 0000 0000 000000
2013-11-02 00:59:55,0.03,0.59,0.00,20.98,22.69,25.52,5.75,31.38,994.07,2064.26,3258.52,3217.94,3457.97,349.22,318.60,9.77,0000 0000 0000 0000 000000
2013-11-02 01:00:56,-0.08,0.59,0.00,20.97,22.69,25.52,5.97,31.50,994.06,2064.28,3258.22,3217.91,3457.95,349.75,318.74,9.77,0000 0000 0000 0000 000000
2013-11-02 01:01:56,0.11,0.59,0.00,20.95,22.69,25.52,5.92,31.38,994.13,2064.46,3258.08,3217.84,3457.93,350.48,318.99,9.78,0000 0000 0000 0000 000000
2013-11-02 01:02:56,0.19,0.59,0.00,20.95,22.69,25.51,5.91,31.50,994.11,2064.46,3258.03,3217.65,3457.72,349.55,318.60,9.78,0000 0000 0000 0000 000000
2013-11-02 01:03:56,0.05,0.59,0.00,20.98,22.69,25.51,5.88,31.25,994.15,2064.43,3258.01,3217.47,3457.47,349.82,318.74,9.79,0000 0000 0000 0000 000000
2013-11-02 01:04:56,0.05,0.59,0.00,20.97,22.69,25.55,5.89,31.25,994.09,2064.53,3258.00,3217.32,3457.30,350.35,319.78,9.80,0000 0000 0000 0000 000000
2013-11-02 01:05:56,0.12,0.59,0.00,20.98,22.69,25.55,5.92,31.33,994.14,2064.62,3258.00,3217.24,3457.18,350.80,319.71,9.80,0000 0000 0000 0000 000000
2013-11-02 01:06:57,0.09,0.59,0.00,20.98,22.69,25.52,5.95,31.42,994.15,2064.57,3257.92,3217.11,3457.09,350.27,319.75,9.81,0000 0000 0000 0000 000000
2013-11-02 01:07:57,0.02,0.59,0.00,20.96,22.69,25.52,5.93,31.25,994.15,2064.49,3257.56,3217.04,3457.03,349.98,319.40,9.81,0000 0000 0000 0000 000000
2013-11-02 01:08:57,-0.02,0.59,0.00,20.95,22.69,25.52,5.78,31.21,994.14,2064.27,3257.27,3217.01,3457.01,350.55,319.27,9.82,0000 0000 0000 0000 000000
2013-11-02 01:09:57,-0.14,0.59,0.00,20.93,22.69,25.50,5.82,31.46,994.14,2064.28,3257.13,3217.00,3457.00,349.83,318.42,9.83,0000 0000 0000 0000 000000
2013-11-02 01:10:57,0.07,0.59,0.00,20.94,22.69,25.54,5.88,31.46,994.15,2064.38,3257.05,3217.00,3457.00,349.60,318.95,9.83,0000 0000 0000 0000 000000
2013-11-02 01:11:58,0.13,0.59,0.00,20.93,22.69,25.55,5.80,31.63,994.15,2064.40,3257.01,3217.00,3457.00,349.51,319.14,9.84,0000 0000 0000 0000 000000
2013-11-02 01:12:58,-0.04,0.59,0.00,20.95,22.69,25.54,5.96,31.29,994.15,2064.33,3257.00,3217.00,3456.95,350.84,319.78,9.84,0000 0000 0000 0000 000000
2013-11-02 01:13:58,-0.02,0.59,0.00,20.97,22.69,25.53,5.91,31.25,994.15,2064.30,3256.99,3216.99,3456.76,350.80,319.73,9.85,0000 0000 0000 0000 000000
2013-11-02 01:14:58,-0.02,0.59,0.00,20.97,22.69,25.52,5.87,31.33,994.15,2064.27,3256.86,3216.96,3456.49,350.32,319.28,9.86,0000 0000 0000 0000 000000
2013-11-02 01:15:59,0.07,0.59,0.00,20.96,22.69,25.54,5.92,31.25,994.16,2064.29,3256.63,3216.92,3456.26,350.02,319.02,9.86,0000 0000 0000 0000 000000
2013-11-02 01:16:59,0.06,0.59,0.00,20.99,22.69,25.54,5.92,31.50,994.16,2064.23,3256.33,3216.84,3456.12,350.04,319.02,9.87,0000 0000 0000 0000 000000
2013-11-02 01:17:59,0.03,0.59,0.00,21.00,22.69,25.53,5.98,31.25,994.17,2064.18,3256.13,3216.65,3456.05,350.59,319.51,9.87,0000 0000 0000 0000 000000
2013-11-02 01:18:59,0.03,0.59,0.00,21.01,22.69,25.53,5.95,31.58,994.16,2064.20,3256.05,3216.30,3456.01,350.10,318.63,9.88,0000 0000 0000 0000 000000
2013-11-02 01:20:00,0.12,0.59,0.00,20.99,22.69,25.53,5.90,31.33,994.17,2064.19,3256.01,3216.13,3456.00,350.64,319.46,9.88,0000 0000 0000 0000 000000
2013-11-02 01:21:00,0.01,0.59,0.00,20.98,22.69,25.52,5.68,31.33,994.19,2064.13,3255.98,3216.06,3456.00,349.06,318.13,9.89,0000 0000 0000 0000 000000
2013-11-02 01:22:00,-0.02,0.59,0.00,20.99,22.69,25.51,5.80,31.46,994.19,2064.09,3255.95,3216.02,3455.99,349.23,318.13,9.90,0000 0000 0000 0000 000000
2013-11-02 01:23:00,-0.02,0.59,0.00,20.98,22.69,25.52,5.93,31.50,994.19,2064.11,3255.75,3216.00,3455.97,349.97,318.97,9.90,0000 0000 0000 0000 000000
2013-11-02 01:24:01,0.08,0.59,0.00,21.02,22.69,25.50,5.85,31.63,994.17,2064.14,3255.41,3216.00,3455.99,349.51,318.51,9.91,0000 0000 0000 0000 000000
2013-11-02 01:25:01,0.03,0.59,0.00,21.04,22.69,25.53,5.79,31.54,994.20,2064.22,3255.18,3216.00,3455.97,349.18,318.19,9.91,0000 0000 0000 0000 000000
2013-11-02 01:26:01,0.11,0.59,0.00,21.01,22.69,25.53,5.91,31.29,994.18,2064.20,3255.09,3216.00,3455.92,350.40,319.32,9.92,0000 0000 0000 0000 000000
2013-11-02 01:27:02,-0.01,0.59,0.00,20.99,22.69,25.53,5.83,31.71,994.24,2064.23,3255.03,3216.00,3455.66,349.45,318.46,9.93,0000 0000 0000 0000 000000
2013-11-02 01:28:02,0.07,0.59,0.00,21.02,22.70,25.54,5.98,31.21,994.22,2064.22,3254.99,3215.99,3455.32,350.39,319.63,9.93,0000 0000 0000 0000 000000
2013-11-02 01:29:02,0.04,0.60,0.00,21.02,22.70,25.53,5.88,31.42,994.32,2064.25,3254.96,3215.97,3455.14,350.38,318.82,9.94,0000 0000 0000 0000 000000
2013-11-02 01:30:02,0.07,0.60,0.00,21.03,22.69,25.52,5.91,31.58,994.30,2064.37,3254.95,3215.95,3455.05,350.24,319.44,9.94,0000 0000 0000 0000 000000
2013-11-02 01:31:03,0.09,0.60,0.00,21.01,22.70,25.51,5.83,31.58,994.31,2064.41,3254.90,3215.87,3455.02,349.11,318.56,9.95,0000 0000 0000 0000 000000
2013-11-02 01:32:03,0.04,0.60,0.00,21.02,22.70,25.53,5.90,31.46,994.40,2064.34,3254.64,3215.58,3455.00,349.77,318.81,9.95,0000 0000 0000 0000 000000
2013-11-02 01:33:03,0.05,0.60,0.00,21.02,22.70,25.51,5.81,31.25,994.47,2064.28,3254.45,3215.46,3455.00,349.24,318.35,9.96,0000 0000 0000 0000 000000
2013-11-02 01:34:04,0.03,0.60,0.00,21.01,22.70,25.54,5.87,31.29,994.44,2064.33,3254.23,3215.29,3454.99,350.36,319.37,9.97,0000 0000 0000 0000 000000
2013-11-02 01:35:04,0.09,0.60,0.00,21.02,22.70,25.54,5.87,31.25,994.46,2064.32,3254.11,3215.21,3454.99,349.88,318.92,9.97,0000 0000 0000 0000 000000
2013-11-02 01:36:04,0.01,0.60,0.00,21.02,22.70,25.52,5.95,31.42,994.48,2064.24,3254.04,3215.09,3454.97,350.41,319.42,9.98,0000 0000 0000 0000 000000
2013-11-02 01:37:04,-0.04,0.60,0.00,21.03,22.71,25.52,5.86,31.33,994.46,2064.19,3254.01,3215.05,3454.89,349.85,319.09,9.98,0000 0000 0000 0000 000000
2013-11-02 01:38:04,0.00,0.60,0.00,21.02,22.71,25.54,5.87,31.42,994.57,2064.13,3254.00,3215.01,3454.72,349.66,318.84,9.99,0000 0000 0000 0000 000000
2013-11-02 01:39:05,-0.02,0.60,0.00,21.01,22.71,25.56,5.76,31.63,994.59,2064.11,3253.99,3215.00,3454.40,348.70,318.50,10.00,0000 0000 0000 0000 000000
2013-11-02 01:40:05,0.05,0.60,0.00,20.99,22.71,25.50,5.83,31.33,994.62,2064.18,3253.95,3215.00,3454.20,350.31,319.40,10.00,0000 0000 0000 0000 000000
2013-11-02 01:41:05,0.06,0.60,0.00,20.99,22.71,25.52,5.90,31.38,994.63,2064.16,3253.83,3215.00,3454.09,349.25,317.93,10.01,0000 0000 0000 0000 000000
2013-11-02 01:42:06,0.01,0.60,0.00,21.02,22.72,25.53,5.96,31.75,994.64,2064.11,3253.48,3215.00,3454.04,350.46,319.53,10.01,0000 0000 0000 0000 000000
2013-11-02 01:43:06,0.02,0.60,0.00,21.02,22.72,25.51,5.80,31.50,994.64,2064.07,3253.20,3215.00,3454.01,349.46,318.60,10.02,0000 0000 0000 0000 000000
2013-11-02 01:44:06,0.00,0.60,0.00,21.02,22.72,25.54,5.83,31.67,994.64,2064.08,3253.07,3214.97,3454.00,350.13,319.19,10.02,0000 0000 0000 0000 000000
2013-11-02 01:45:06,0.01,0.60,0.00,21.03,22.72,25.53,5.98,31.63,994.64,2064.07,3253.02,3214.94,3454.00,350.62,319.44,10.03,0000 0000 0000 0000 000000
2013-11-02 01:46:06,0.02,0.60,0.00,21.04,22.72,25.55,5.88,31.21,994.64,2064.08,3253.00,3214.92,3453.99,351.29,320.10,10.04,0000 0000 0000 0000 000000
2013-11-02 01:47:07,0.02,0.60,0.00,21.03,22.72,25.54,5.91,31.17,994.65,2064.22,3253.00,3214.90,3453.99,350.20,319.27,10.04,0000 0000 0000 0000 000000
2013-11-02 01:48:07,0.11,0.60,0.00,21.04,22.72,25.54,5.83,31.17,994.65,2064.18,3253.00,3214.63,3453.96,348.56,318.07,10.05,0000 0000 0000 0000 000000
2013-11-02 01:49:07,0.03,0.60,0.00,21.07,22.72,25.55,5.88,31.13,994.67,2064.10,3252.96,3214.33,3453.91,349.15,318.28,10.05,0000 0000 0000 0000 000000
2013-11-02 01:50:08,0.01,0.60,0.00,21.07,22.72,25.54,5.84,31.33,994.66,2064.10,3252.88,3214.16,3453.67,348.93,317.90,10.06,0000 0000 0000 0000 000000
2013-11-02 01:51:08,0.09,0.60,0.00,21.06,22.72,25.57,5.90,31.42,994.65,2064.09,3252.51,3214.06,3453.31,350.55,319.56,10.07,0000 0000 0000 0000 000000
2013-11-02 01:52:08,0.09,0.60,0.00,21.08,22.72,25.53,5.74,31.29,994.65,2064.08,3252.23,3214.03,3453.13,349.61,318.68,10.07,0000 0000 0000 0000 000000
2013-11-02 01:53:08,0.06,0.60,0.00,21.08,22.72,25.54,5.91,31.25,994.65,2064.05,3252.09,3214.01,3453.07,349.92,318.96,10.08,0000 0000 0000 0000 000000
2013-11-02 01:54:09,0.00,0.60,0.00,21.08,22.72,25.52,5.98,31.29,994.65,2064.05,3252.04,3214.00,3453.03,350.94,319.89,10.08,0000 0000 0000 0000 000000
2013-11-02 01:55:09,0.01,0.60,0.00,21.07,22.72,25.51,5.91,31.17,994.64,2064.06,3252.01,3214.00,3453.02,350.50,319.80,10.09,0000 0000 0000 0000 000000
2013-11-02 01:56:09,0.02,0.60,0.00,21.08,22.72,25.54,5.84,31.29,994.64,2064.04,3252.00,3214.00,3453.00,349.73,318.79,10.10,0000 0000 0000 0000 000000
2013-11-02 01:57:09,-0.01,0.60,0.00,21.09,22.72,25.53,5.93,31.33,994.64,2064.03,3252.00,3213.99,3452.98,350.89,319.61,10.10,0000 0000 0000 0000 000000
2013-11-02 01:58:10,0.00,0.60,0.00,21.09,22.72,25.53,5.73,31.08,994.64,2064.03,3251.97,3213.98,3452.98,349.28,318.78,10.11,0000 0000 0000 0000 000000
2013-11-02 01:59:10,0.01,0.60,0.00,21.11,22.72,25.52,5.88,31.38,994.66,2064.03,3251.70,3213.96,3452.96,349.71,318.74,10.11,0000 0000 0000 0000 000000
2013-11-02 02:00:10,0.04,0.60,0.00,21.10,22.72,25.54,5.88,31.21,994.68,2064.04,3251.35,3213.93,3452.86,349.89,318.92,10.12,0000 0000 0000 0000 000000
2013-11-02 02:01:11,0.07,0.60,0.00,21.11,22.72,25.55,5.77,31.29,994.68,2064.02,3251.19,3213.81,3452.71,349.90,319.27,10.12,0000 0000 0000 0000 000000
2013-11-02 02:02:11,0.04,0.60,0.00,21.09,22.72,25.53,5.87,31.17,994.65,2064.01,3251.08,3213.61,3452.47,349.72,318.61,10.13,0000 0000 0000 0000 000000
2013-11-02 02:03:11,0.09,0.60,0.00,21.09,22.72,25.52,5.98,31.25,994.67,2064.03,3251.03,3213.33,3452.27,350.42,319.42,10.14,0000 0000 0000 0000 000000
2013-11-02 02:04:11,0.11,0.60,0.00,21.11,22.72,25.54,5.88,31.42,994.66,2064.04,3251.01,3213.20,3452.12,350.36,319.33,10.14,0000 0000 0000 0000 000000
2013-11-02 02:05:11,0.05,0.60,0.00,21.10,22.72,25.53,5.82,31.38,994.68,2064.07,3250.99,3213.10,3452.04,349.17,318.27,10.15,0000 0000 0000 0000 000000
2013-11-02 02:06:12,0.05,0.60,0.00,21.11,22.72,25.52,5.91,31.17,994.68,2064.05,3250.98,3213.05,3452.01,351.48,320.57,10.15,0000 0000 0000 0000 000000
2013-11-02 02:07:12,0.00,0.60,0.00,21.10,22.72,25.55,5.86,31.33,994.68,2064.03,3250.96,3213.02,3452.00,349.02,317.90,10.16,0000 0000 0000 0000 000000
2013-11-02 02:08:12,0.01,0.60,0.00,21.08,22.73,25.55,5.84,31.25,994.66,2064.03,3250.58,3213.00,3452.00,349.80,318.49,10.17,0000 0000 0000 0000 000000
2013-11-02 02:09:13,0.05,0.60,0.00,21.08,22.73,25.54,5.79,31.54,994.66,2064.04,3250.27,3213.00,3452.00,349.54,318.94,10.17,0000 0000 0000 0000 000000
2013-11-02 02:10:13,0.05,0.60,0.00,21.10,22.73,25.55,5.98,31.67,994.70,2064.06,3250.14,3213.00,3452.00,350.69,319.60,10.18,0000 0000 0000 0000 000000
2013-11-02 02:11:13,0.02,0.60,0.00,21.11,22.74,25.52,5.91,31.17,994.65,2064.03,3250.05,3212.99,3451.97,350.89,319.82,10.18,0000 0000 0000 0000 000000
2013-11-02 02:12:13,-0.01,0.60,0.00,21.10,22.74,25.55,5.86,31.54,994.70,2064.02,3250.01,3212.95,3451.87,350.00,319.02,10.19,0000 0000 0000 0000 000000
2013-11-02 02:13:13,0.01,0.60,0.00,21.09,22.74,25.58,5.87,31.67,994.67,2064.01,3250.00,3212.92,3451.63,350.23,319.25,10.19,0000 0000 0000 0000 000000
2013-11-02 02:14:14,0.04,0.61,0.00,21.09,22.74,25.54,5.93,31.71,994.67,2064.01,3249.95,3212.75,3451.32,349.51,318.59,10.20,0000 0000 0000 0000 000000
2013-11-02 02:15:14,0.08,0.61,0.00,21.09,22.74,25.53,5.89,31.25,994.67,2064.02,3249.84,3212.53,3451.14,350.54,319.68,10.21,0000 0000 0000 0000 000000
2013-11-02 02:16:14,0.09,0.61,0.00,21.09,22.74,25.55,5.91,31.42,994.66,2064.03,3249.63,3212.32,3451.06,351.11,319.78,10.21,0000 0000 0000 0000 000000
2013-11-02 02:17:15,0.08,0.61,0.00,21.09,22.74,25.56,5.94,31.50,994.79,2064.03,3249.48,3212.17,3451.02,349.55,318.76,10.22,0000 0000 0000 0000 000000
2013-11-02 02:18:15,0.06,0.61,0.00,21.09,22.74,25.57,5.69,31.71,994.76,2064.03,3249.28,3212.10,3451.00,348.75,318.56,10.22,0000 0000 0000 0000 000000
2013-11-02 02:19:15,0.06,0.61,0.00,21.11,22.74,25.55,5.80,31.17,994.79,2064.06,3249.13,3212.06,3451.00,349.25,318.37,10.23,0000 0000 0000 0000 000000
2013-11-02 02:20:16,0.03,0.61,0.00,21.10,22.74,25.56,5.74,31.25,994.81,2064.06,3249.05,3212.02,3451.00,349.81,318.88,10.24,0000 0000 0000 0000 000000
2013-11-02 02:21:16,0.02,0.61,0.00,21.10,22.74,25.57,5.93,31.46,994.82,2064.05,3249.01,3212.00,3450.99,349.79,319.16,10.24,0000 0000 0000 0000 000000
2013-11-02 02:22:16,-0.01,0.61,0.00,21.09,22.75,25.57,5.93,31.50,994.86,2064.04,3249.00,3212.00,3450.98,350.30,319.07,10.25,0000 0000 0000 0000 000000
2013-11-02 02:23:16,0.00,0.61,0.00,21.10,22.75,25.54,5.84,31.46,994.94,2064.02,3249.00,3212.00,3450.82,349.97,319.35,10.25,0000 0000 0000 0000 000000
2013-11-02 02:24:17,0.01,0.61,0.00,21.11,22.75,25.56,5.75,31.54,994.98,2064.01,3248.88,3212.00,3450.43,348.97,317.79,10.26,0000 0000 0000 0000 000000
2013-11-02 02:25:17,0.06,0.61,0.00,21.09,22.75,25.55,5.88,31.50,995.01,2064.02,3248.63,3212.00,3450.23,351.49,320.49,10.26,0000 0000 0000 0000 000000
2013-11-02 02:26:17,0.07,0.61,0.00,21.11,22.75,25.57,5.91,31.58,995.00,2064.02,3248.30,3211.99,3450.11,350.37,319.66,10.27,0000 0000 0000 0000 000000
2013-11-02 02:27:17,0.05,0.61,0.00,21.11,22.75,25.54,5.88,31.75,995.01,2064.01,3248.14,3211.97,3450.04,350.87,319.90,10.28,0000 0000 0000 0000 000000
2013-11-02 02:28:18,0.02,0.61,0.00,21.09,22.75,25.55,5.85,31.63,995.09,2064.00,3248.05,3211.92,3450.01,350.06,318.94,10.28,0000 0000 0000 0000 000000
2013-11-02 02:29:18,0.03,0.61,0.00,21.09,22.75,25.56,5.93,31.88,995.09,2064.02,3248.02,3211.78,3450.01,350.19,319.54,10.29,0000 0000 0000 0000 000000
2013-11-02 02:30:18,0.04,0.61,0.00,21.09,22.75,25.57,5.92,31.63,995.12,2064.01,3248.00,3211.60,3450.00,350.02,319.19,10.29,0000 0000 0000 0000 000000
2013-11-02 02:31:18,0.03,0.61,0.00,21.10,22.75,25.55,5.97,31.54,995.13,2064.01,3248.00,3211.33,3450.00,350.98,320.07,10.30,0000 0000 0000 0000 000000
2013-11-02 02:32:19,0.05,0.61,0.00,21.12,22.76,25.58,5.92,31.54,995.13,2064.01,3247.97,3211.16,3449.99,350.34,319.45,10.31,0000 0000 0000 0000 000000
2013-11-02 02:33:19,0.05,0.61,0.00,21.12,22.76,25.57,5.88,31.71,995.13,2064.04,3247.81,3211.07,3449.99,350.04,319.18,10.31,0000 0000 0000 0000 000000
2013-11-02 02:34:19,0.04,0.61,0.00,21.11,22.77,25.56,5.89,31.58,995.13,2064.03,3247.44,3211.02,3449.95,349.37,318.58,10.32,0000 0000 0000 0000 000000
2013-11-02 02:35:20,0.07,0.61,0.00,21.10,22.77,25.56,5.97,31.75,995.13,2064.02,3247.17,3211.00,3449.82,350.58,319.74,10.32,0000 0000 0000 0000 000000
2013-11-02 02:36:20,0.05,0.61,0.00,21.13,22.77,25.56,5.88,31.38,995.13,2064.03,3247.07,3211.00,3449.60,350.58,319.66,10.33,0000 0000 0000 0000 000000
2013-11-02 02:37:20,0.04,0.61,0.00,21.15,22.77,25.56,5.94,31.38,995.13,2064.02,3247.03,3211.00,3449.34,350.26,319.34,10.34,0000 0000 0000 0000 000000